Weather History for KTEX - August, 2013

Change the Weather History Date:

Friday, August 23, 2013

  Actual Average Record
Temperature  
Mean Temperature 62 °F -  
Max Temperature 73 °F 67 °F 78 °F (1998)
Min Temperature 51 °F 46 °F 37 °F (2001)
Degree Days  
Heating Degree Days 3    
Growing Degree Days 12 (Base 50)    
Moisture  
Dew Point 41 °F    
Average Humidity 50    
Maximum Humidity 94    
Minimum Humidity 20    
Precipitation  
Precipitation 0.00 in - - ()
Sea Level Pressure  
Sea Level Pressure 30.38 in    
Wind  
Wind Speed 6 mph (SSE)    
Max Wind Speed 24 mph    
Max Gust Speed 30 mph    
Visibility 10 miles    
Events Rain , Thunderstorm    
Averages and records for this station are not official NWS values.
T = Trace of Precipitation, MM = Missing Value Source: NWS Daily Summary

Daily Weather History Graph

Daily Weather History Graph

Search for Another Location

Airport or City:

Trip Planner

Search our weather history database for the weather conditions in past years. The results will help you decide how hot, cold, wet, or windy it might be!

Date:

Astronomy

Aug. 23, 2013 Rise Set
Actual Time 6:34 AM MDT 7:53 PM MDT
Civil Twilight 6:06 AM MDT 8:20 PM MDT
Nautical Twilight 5:33 AM MDT 8:53 PM MDT
Astronomical Twilight 4:59 AM MDT 9:28 PM MDT
Moon 9:18 PM MDT (8/23) 9:28 AM MDT (8/23)
Length of Visible Light 14h 14m
Length of Day
13h 19m
Waning Gibbous, 91% of the Moon is Illuminated
Aug 23
Waning Gibbous
Aug 28
Last Quarter
Sep 5
New
Sep 12
First Quarter
Sep 19
Full

Hourly Weather History & Observations

Time (MDT) Temp. Dew Point Humidity Pressure Visibility Wind Dir Wind Speed Gust Speed Precip Events Conditions
12:15 AM 53.6 °F 50.0 °F 88% 30.44 in 10.0 mi East 3.5 mph - N/A   Clear
12:35 AM 53.6 °F 50.0 °F 88% 30.44 in 10.0 mi SE 3.5 mph - N/A   Clear
12:55 AM 53.6 °F 50.0 °F 88% 30.44 in 10.0 mi SE 3.5 mph - N/A Thunderstorm Thunderstorm
1:15 AM 53.6 °F 50.0 °F 88% 30.44 in 10.0 mi East 4.6 mph - N/A   Clear
1:35 AM 51.8 °F 48.2 °F 88% 30.45 in 10.0 mi ESE 5.8 mph - N/A Thunderstorm Clear
1:55 AM 51.8 °F 50.0 °F 94% 30.44 in 10.0 mi SE 6.9 mph - N/A   Clear
2:15 AM 51.8 °F 48.2 °F 88% 30.44 in 10.0 mi SE 10.4 mph - N/A   Clear
2:35 AM 51.8 °F 48.2 °F 88% 30.43 in 10.0 mi ESE 8.1 mph - N/A   Clear
2:55 AM 51.8 °F 46.4 °F 82% 30.44 in 10.0 mi East 6.9 mph - N/A   Scattered Clouds
3:15 AM 51.8 °F 46.4 °F 82% 30.43 in 10.0 mi Calm Calm - N/A Thunderstorm Scattered Clouds
3:35 AM 51.8 °F 46.4 °F 82% 30.43 in 10.0 mi SE 5.8 mph - N/A   Scattered Clouds
3:55 AM 51.8 °F 46.4 °F 82% 30.43 in 10.0 mi ESE 5.8 mph - N/A   Scattered Clouds
4:15 AM 53.6 °F 44.6 °F 72% 30.43 in 10.0 mi ESE 4.6 mph - N/A Thunderstorm Scattered Clouds
4:35 AM 53.6 °F 44.6 °F 72% 30.42 in 10.0 mi ESE 6.9 mph - N/A   Clear
4:55 AM 55.4 °F 42.8 °F 63% 30.41 in 10.0 mi Calm Calm - N/A   Clear
5:15 AM 55.4 °F 42.8 °F 63% 30.41 in 10.0 mi SE 5.8 mph - N/A Thunderstorm Clear
5:35 AM 53.6 °F 44.6 °F 72% 30.42 in 10.0 mi ESE 8.1 mph - N/A   Scattered Clouds
5:55 AM 53.6 °F 42.8 °F 67% 30.42 in 10.0 mi SSE 24.2 mph 29.9 mph N/A   Mostly Cloudy
6:15 AM 57.2 °F 42.8 °F 59% 30.43 in 10.0 mi SE 19.6 mph 27.6 mph N/A   Scattered Clouds
6:35 AM 55.4 °F 42.8 °F 63% 30.44 in 10.0 mi Calm Calm - N/A Thunderstorm Overcast
6:55 AM 55.4 °F 42.8 °F 63% 30.42 in 10.0 mi Calm Calm - N/A Rain Light Rain
7:15 AM 55.4 °F 42.8 °F 63% 30.42 in 10.0 mi ESE 8.1 mph - N/A   Scattered Clouds
7:35 AM 55.4 °F 44.6 °F 67% 30.41 in 10.0 mi ESE 8.1 mph - N/A   Clear
7:55 AM 55.4 °F 42.8 °F 63% 30.41 in 10.0 mi ESE 5.8 mph - N/A   Clear
8:15 AM 55.4 °F 42.8 °F 63% 30.41 in 10.0 mi Calm Calm - N/A   Clear
8:35 AM 59.0 °F 42.8 °F 55% 30.41 in 10.0 mi SE 3.5 mph - N/A   Clear
8:55 AM 59.0 °F 42.8 °F 55% 30.41 in 10.0 mi ESE 3.5 mph - N/A   Clear
9:15 AM 62.6 °F 44.6 °F 52% 30.42 in 10.0 mi Calm Calm - N/A   Clear
9:35 AM 64.4 °F 41.0 °F 42% 30.42 in 10.0 mi Calm Calm - N/A   Clear
9:55 AM 66.2 °F 42.8 °F 43% 30.42 in 10.0 mi Calm Calm - N/A   Scattered Clouds
10:15 AM 68.0 °F 44.6 °F 43% 30.42 in 10.0 mi Calm Calm - N/A   Mostly Cloudy
10:35 AM 69.8 °F 42.8 °F 38% 30.42 in 10.0 mi ESE 6.9 mph - N/A   Scattered Clouds
10:55 AM 69.8 °F 42.8 °F 38% 30.42 in 10.0 mi SE 9.2 mph - N/A   Scattered Clouds
11:15 AM 69.8 °F 42.8 °F 38% 30.40 in 10.0 mi SE 17.3 mph 21.9 mph N/A   Mostly Cloudy
11:35 AM 69.8 °F 41.0 °F 35% 30.41 in 10.0 mi SE 17.3 mph 26.5 mph N/A   Scattered Clouds
11:55 AM 69.8 °F 41.0 °F 35% 30.40 in 10.0 mi SE 15.0 mph 23.0 mph N/A   Clear
12:15 PM 68.0 °F 41.0 °F 37% 30.40 in 10.0 mi SSE 11.5 mph 25.3 mph N/A   Scattered Clouds
12:35 PM 69.8 °F 41.0 °F 35% 30.40 in 10.0 mi SE 17.3 mph 23.0 mph N/A   Scattered Clouds
12:55 PM 69.8 °F 39.2 °F 33% 30.38 in 10.0 mi SSE 18.4 mph 21.9 mph N/A   Clear
1:15 PM 69.8 °F 39.2 °F 33% 30.38 in 10.0 mi SE 12.7 mph 25.3 mph N/A Thunderstorm Clear
1:35 PM 71.6 °F 37.4 °F 29% 30.37 in 10.0 mi SE 9.2 mph 19.6 mph N/A   Clear
1:55 PM 71.6 °F 39.2 °F 31% 30.36 in 10.0 mi SSE 9.2 mph - N/A   Clear
2:15 PM 71.6 °F 37.4 °F 29% 30.36 in 10.0 mi SE 11.5 mph 19.6 mph N/A   Clear
2:35 PM 71.6 °F 35.6 °F 27% 30.34 in 10.0 mi South 8.1 mph 21.9 mph N/A   Clear
2:55 PM 73.4 °F 33.8 °F 23% 30.34 in 10.0 mi SSW 10.4 mph 24.2 mph N/A   Clear
3:15 PM 73.4 °F 33.8 °F 23% 30.33 in 10.0 mi South 9.2 mph 21.9 mph N/A   Clear
3:35 PM 73.4 °F 32.0 °F 22% 30.32 in 10.0 mi South 13.8 mph 26.5 mph N/A   Clear
3:55 PM 73.4 °F 32.0 °F 22% 30.33 in 10.0 mi South 4.6 mph 27.6 mph N/A   Clear
4:15 PM 73.4 °F 30.2 °F 20% 30.33 in 10.0 mi SSW 12.7 mph 17.3 mph N/A   Scattered Clouds
4:35 PM 73.4 °F 32.0 °F 22% 30.32 in 10.0 mi SW 12.7 mph 20.7 mph N/A   Mostly Cloudy
4:55 PM 71.6 °F 32.0 °F 23% 30.31 in 10.0 mi SE 9.2 mph - N/A   Scattered Clouds
5:15 PM 71.6 °F 32.0 °F 23% 30.30 in 10.0 mi SE 12.7 mph 20.7 mph N/A   Clear
5:35 PM 71.6 °F 32.0 °F 23% 30.30 in 10.0 mi SSE 10.4 mph 17.3 mph N/A   Clear
5:55 PM 71.6 °F 30.2 °F 22% 30.31 in 10.0 mi South 6.9 mph - N/A   Clear
6:15 PM 69.8 °F 32.0 °F 25% 30.30 in 10.0 mi SSW 9.2 mph - N/A Thunderstorm Clear
6:35 PM 69.8 °F 32.0 °F 25% 30.30 in 10.0 mi SSW 8.1 mph - N/A   Clear
6:55 PM 69.8 °F 30.2 °F 23% 30.30 in 10.0 mi SSW 5.8 mph 16.1 mph N/A Thunderstorm Clear
7:15 PM 69.8 °F 32.0 °F 25% 30.30 in 10.0 mi SW 5.8 mph 16.1 mph N/A   Clear
7:35 PM 68.0 °F 37.4 °F 33% 30.30 in 10.0 mi SW 5.8 mph - N/A   Scattered Clouds
7:55 PM 66.2 °F 39.2 °F 37% 30.32 in 10.0 mi SSW 6.9 mph - N/A   Scattered Clouds
8:15 PM 64.4 °F 42.8 °F 45% 30.32 in 10.0 mi WSW 5.8 mph - N/A   Scattered Clouds
8:35 PM 64.4 °F 42.8 °F 45% 30.34 in 10.0 mi SW 5.8 mph - N/A   Clear
8:55 PM 62.6 °F 42.8 °F 48% 30.35 in 10.0 mi West 5.8 mph - N/A   Clear
9:15 PM 62.6 °F 42.8 °F 48% 30.36 in 10.0 mi West 4.6 mph - N/A   Scattered Clouds
9:35 PM 60.8 °F 41.0 °F 48% 30.36 in 10.0 mi Calm Calm - N/A   Scattered Clouds
9:55 PM 60.8 °F 39.2 °F 45% 30.36 in 10.0 mi Calm Calm - N/A   Clear
10:15 PM 59.0 °F 39.2 °F 48% 30.36 in 10.0 mi Calm Calm - N/A   Clear
10:35 PM 59.0 °F 39.2 °F 48% 30.37 in 10.0 mi ESE 3.5 mph - N/A   Clear
10:55 PM 57.2 °F 37.4 °F 48% 30.37 in 10.0 mi Calm Calm - N/A   Scattered Clouds
11:15 PM 57.2 °F 39.2 °F 51% 30.38 in 10.0 mi Calm Calm - N/A   Scattered Clouds
11:35 PM 55.4 °F 39.2 °F 54% 30.38 in 10.0 mi ESE 6.9 mph - N/A   Scattered Clouds
11:55 PM 55.4 °F 41.0 °F 58% 30.39 in 10.0 mi Calm Calm - N/A   Clear